This is the latest recevied weather packets stored in our database for station/object N1YZ. If no packets are shown the sender has not sent any weather packets the latest 10 day(s).
| Time | Temp. | Humidity | Pressure | Rain* | Wind** | Luminosity | Snow |
|---|---|---|---|---|---|---|---|
| 1777153671 | 24.44° C | 71% | 1028.3 hPa | 0 mm | - | 256 W/m² | - |
| 1777153368 | 23.89° C | 76% | 1028.1 hPa | 0 mm | - | 50 W/m² | - |
| 1777153063 | 24.44° C | 75% | 1028 hPa | 0 mm | - | 77 W/m² | - |
| 1777152760 | 24.44° C | 75% | 1028.4 hPa | 0 mm | - | 74 W/m² | - |
| 1777152457 | 24.44° C | 75% | 1028 hPa | 0 mm | - | 69 W/m² | - |
| 1777152153 | 24.44° C | 75% | 1028.2 hPa | 0 mm | - | 329 W/m² | - |
| 1777151848 | 24.44° C | 71% | 1028.2 hPa | 0 mm | - | 413 W/m² | - |
| 1777151544 | 24.44° C | 77% | 1028.4 hPa | 0 mm | - | 217 W/m² | - |
| 1777151241 | 24.44° C | 76% | 1028.3 hPa | 0 mm | - | 86 W/m² | - |
| 1777150935 | 25° C | 75% | 1028.1 hPa | 0 mm | - | 81 W/m² | - |
| 1777150631 | 25° C | 73% | 1028.2 hPa | 0 mm | - | 54 W/m² | - |
| 1777150327 | 24.44° C | 75% | 1028.4 hPa | 0 mm | - | 142 W/m² | - |
| 1777150024 | 24.44° C | 72% | 1028.5 hPa | 0 mm | - | 68 W/m² | - |
| 1777149720 | 23.89° C | 78% | 1028.4 hPa | 0 mm | - | 107 W/m² | - |
| 1777149417 | 23.89° C | 83% | 1028.5 hPa | 0 mm | - | 314 W/m² | - |
| 1777149112 | 23.33° C | 82% | 1028.6 hPa | 0 mm | - | 474 W/m² | - |
| 1777148807 | 23.33° C | 79% | 1028.8 hPa | 0 mm | - | 165 W/m² | - |
| 1777148504 | 23.33° C | 80% | 1028.6 hPa | 0 mm | - | 80 W/m² | - |
| 1777148200 | 23.33° C | 81% | 1028.9 hPa | 0 mm | - | 117 W/m² | - |
| 1777147896 | 23.89° C | 80% | 1028.8 hPa | 0 mm | - | 142 W/m² | - |
| 1777147593 | 22.78° C | 80% | 1028.9 hPa | 0 mm | - | 454 W/m² | - |
| 1777147287 | 22.78° C | 82% | 1029 hPa | 0 mm | - | 108 W/m² | - |
| 1777146983 | 23.33° C | 82% | 1029 hPa | 0 mm | - | 96 W/m² | - |
| 1777146680 | 23.89° C | 78% | 1029.2 hPa | 0 mm | - | 153 W/m² | - |
| 1777146375 | 24.44° C | 78% | 1029.1 hPa | 0 mm | - | 152 W/m² | - |
* Rain latest hour (hover to see other rain measurements)
** Current wind speed in m/s (hover to see current wind gust speed)